EA1AXY-13 Weather Reports


time (UTC)temp
C
wind
direction
speed
KPH
gust
KPH
rain 1hr
cm
rain 24hr
cm
rain mn
cm
humidity
%
barometer
mb
20190421085006 21 38 1.6 6.4 0.00 0.00 0.00 10 1014.3
20190421084506 21 76 0.0 4.8 0.00 0.00 0.00 10 1014.4
20190421084006 21 52 1.6 4.8 0.00 0.00 0.00 10 1014.4
20190421083505 20 76 1.6 6.4 0.00 0.00 0.00 10 1014.5
20190421083007 20 104 1.6 6.4 0.00 0.00 0.00 10 1014.4
20190421082505 21 107 1.6 4.8 0.00 0.00 0.00 10 1014.5
20190421082006 21 115 0.0 4.8 0.00 0.00 0.00 10 1014.6
20190421081506 21 130 0.0 3.2 0.00 0.00 0.00 10 1014.6
20190421081007 20 120 0.0 3.2 0.00 0.00 0.00 10 1014.6
20190421080506 20 100 1.6 6.4 0.00 0.00 0.00 10 1014.6
20190421080006 20 90 1.6 6.4 0.00 0.00 0.00 10 1014.7
20190421075506 20 96 0.0 4.8 0.00 0.00 0.00 10 1014.7
20190421075006 20 118 0.0 3.2 0.00 0.00 0.00 10 1014.7
20190421074506 20 109 0.0 3.2 0.00 0.00 0.00 10 1014.7
20190421073506 19 76 0.0 4.8 0.00 0.00 0.00 10 1014.7
20190421073007 18 86 0.0 3.2 0.00 0.00 0.00 10 1014.9
20190421072506 18 90 0.0 1.6 0.00 0.00 0.00 17 1014.9
20190421072006 17 73 0.0 1.6 0.00 0.00 0.00 24 1014.8
20190421071508 16 29 0.0 1.6 0.00 0.00 0.00 28 1015.0
20190421071007 14 1 0.0 1.6 0.00 0.00 0.00 37 1015.0
20190421070507 12 340 0.0 3.2 0.00 0.00 0.00 44 1015.0
20190421070007 10 319 0.0 3.2 0.00 0.00 0.00 51 1014.9
20190421065507 8 314 0.0 3.2 0.00 0.00 0.00 56 1014.9
20190421065006 7 314 1.6 3.2 0.00 0.00 0.00 59 1014.9
20190421064506 6 317 0.0 3.2 0.00 0.00 0.00 60 1015.0
20190421064006 6 306 0.0 3.2 0.00 0.00 0.00 60 1014.9
20190421063506 6 301 1.6 4.8 0.00 0.00 0.00 59 1014.8
20190421063007 6 307 1.6 4.8 0.00 0.00 0.00 59 1014.9
20190421062506 6 300 0.0 4.8 0.00 0.00 0.00 59 1015.0
20190421062006 6 294 1.6 4.8 0.00 0.00 0.00 58 1014.9
20190421061505 6 301 1.6 3.2 0.00 0.00 0.00 60 1014.9
20190421061123 6 294 0.0 3.2 0.00 0.00 0.00 62 1014.9
20190421061006 6 295 1.6 3.2 0.00 0.00 0.00 62 1014.9
20190421060506 5 292 1.6 4.8 0.00 0.00 0.00 63 1015.0
20190421060007 5 300 1.6 6.4 0.00 0.00 0.00 62 1014.9
20190421055506 5 308 1.6 6.4 0.00 0.00 0.00 62 1015.0
20190421055008 5 313 1.6 4.8 0.00 0.00 0.00 62 1014.9
20190421054506 5 300 1.6 4.8 0.00 0.00 0.00 62 1014.9
20190421054006 5 285 1.6 4.8 0.00 0.00 0.00 62 1014.9
20190421053506 5 298 1.6 4.8 0.00 0.00 0.00 61 1014.7
20190421053007 6 298 0.0 3.2 0.00 0.00 0.00 64 1014.7
20190421052508 5 276 0.0 4.8 0.00 0.00 0.00 64 1014.7
20190421052006 5 295 1.6 4.8 0.00 0.00 0.00 63 1014.7
20190421051506 5 303 1.6 4.8 0.00 0.00 0.00 62 1014.6
20190421051121 6 292 0.0 4.8 0.00 0.00 0.00 62 1014.7
20190421051008 6 285 0.0 3.2 0.00 0.00 0.00 62 1014.7
20190421050506 6 273 0.0 3.2 0.00 0.00 0.00 63 1014.8
20190421050008 5 270 1.6 3.2 0.00 0.00 0.00 63 1014.7
20190421045506 5 279 1.6 4.8 0.00 0.00 0.00 64 1014.8
20190421045006 5 303 1.6 6.4 0.00 0.00 0.00 61 1014.8
20190421044506 6 308 1.6 6.4 0.00 0.00 0.00 58 1014.8
20190421044006 6 308 0.0 3.2 0.00 0.00 0.00 58 1014.9
20190421043507 6 316 1.6 3.2 0.00 0.00 0.00 57 1014.9
20190421043006 6 317 0.0 3.2 0.00 0.00 0.00 59 1015.0
20190421042506 6 304 0.0 3.2 0.00 0.00 0.00 60 1014.9
20190421042006 6 300 0.0 3.2 0.00 0.00 0.00 60 1015.0
20190421041506 6 305 1.6 4.8 0.00 0.00 0.00 60 1014.9
20190421041006 6 309 0.0 4.8 0.00 0.00 0.00 61 1014.9
20190421040506 6 304 0.0 3.2 0.00 0.00 0.00 62 1014.9
20190421040007 6 311 1.6 6.4 0.00 0.00 0.00 61 1014.9
20190421035505 6 302 0.0 6.4 0.00 0.00 0.00 62 1014.9
20190421035006 6 281 0.0 3.2 0.00 0.00 0.00 62 1014.9
20190421034506 6 296 1.6 6.4 0.00 0.00 0.00 62 1014.9
20190421034006 6 293 1.6 6.4 0.00 0.00 0.00 62 1014.9
20190421033506 6 294 1.6 6.4 0.00 0.00 0.00 63 1015.0
20190421033007 6 287 1.6 4.8 0.00 0.00 0.00 64 1015.1
20190421032506 6 280 1.6 4.8 0.00 0.00 0.00 64 1015.0
20190421032008 6 300 1.6 4.8 0.00 0.00 0.00 63 1015.1
20190421031506 6 317 1.6 4.8 0.00 0.00 0.00 63 1015.1
20190421031006 6 308 1.6 4.8 0.00 0.00 0.00 62 1015.1
20190421030506 6 293 1.6 4.8 0.00 0.00 0.00 64 1015.2
20190421030006 6 295 1.6 4.8 0.00 0.00 0.00 65 1015.1
20190421025508 6 316 3.2 6.4 0.00 0.00 0.00 65 1015.3
20190421025006 6 316 1.6 6.4 0.00 0.00 0.00 64 1015.2
20190421024506 6 289 1.6 6.4 0.00 0.00 0.00 65 1015.3
20190421024006 6 293 1.6 6.4 0.00 0.00 0.00 65 1015.4
20190421023506 6 306 1.6 6.4 0.00 0.00 0.00 65 1015.4
20190421023007 6 304 1.6 6.4 0.00 0.00 0.00 66 1015.4
20190421022506 6 299 1.6 6.4 0.00 0.00 0.00 65 1015.3
20190421022006 6 315 1.6 4.8 0.00 0.00 0.00 65 1015.4
20190421021505 6 318 1.6 4.8 0.00 0.00 0.00 65 1015.4
20190421021008 6 290 1.6 6.4 0.00 0.00 0.00 65 1015.4
20190421020506 6 285 1.6 6.4 0.00 0.00 0.00 66 1015.5
20190421020018 6 292 1.6 6.4 0.00 0.00 0.00 65 1015.6
20190421015505 6 314 1.6 4.8 0.00 0.00 0.00 65 1015.6
20190421015006 7 316 1.6 4.8 0.00 0.00 0.00 65 1015.6
20190421014506 7 302 0.0 4.8 0.00 0.00 0.00 66 1015.7
20190421014006 7 312 1.6 4.8 0.00 0.00 0.00 66 1015.7
20190421013506 7 310 1.6 4.8 0.00 0.00 0.00 65 1015.6
20190421013006 7 299 1.6 4.8 0.00 0.00 0.00 64 1015.6
20190421012506 7 308 0.0 4.8 0.00 0.00 0.00 64 1015.6
20190421012006 7 297 0.0 3.2 0.00 0.00 0.00 63 1015.7
20190421011506 7 301 1.6 4.8 0.00 0.00 0.00 61 1015.8
20190421011007 8 314 1.6 4.8 0.00 0.00 0.00 60 1015.7
20190421010506 8 314 0.0 3.2 0.00 0.00 0.00 58 1015.8
20190421010007 9 311 1.6 3.2 0.00 0.00 0.00 57 1015.9
20190421005506 9 306 0.0 3.2 0.00 0.00 0.00 56 1016.0
20190421005007 10 282 0.0 3.2 0.00 0.00 0.00 54 1015.9
20190421004507 10 285 1.6 4.8 0.00 0.00 0.00 53 1015.9
20190421004006 10 289 1.6 4.8 0.00 0.00 0.00 52 1016.0
20190421003506 10 277 0.0 3.2 0.00 0.00 0.00 52 1016.1
20190421003115 10 270 0.0 3.2 0.00 0.00 0.00 51 1016.2
20190421003006 10 270 0.0 3.2 0.00 0.00 0.00 50 1016.1
20190421002507 10 270 0.0 3.2 0.00 0.00 0.00 48 1016.2
20190421002006 10 279 0.0 3.2 0.00 0.00 0.00 49 1016.3
20190421001505 10 55 0.0 3.2 0.00 0.00 0.00 48 1016.2
20190421001124 10 44 0.0 4.8 0.00 0.00 0.00 48 1016.1
20190421001010 10 353 1.6 6.4 0.00 0.00 0.00 48 1016.1
20190421000516 11 315 1.6 6.4 0.00 0.00 0.00 47 1016.2
20190421000007 11 308 1.6 6.4 0.00 0.00 0.00 46 1016.1
20190420235507 11 312 1.6 6.4 0.00 0.00 0.00 44 1016.2
20190420235006 11 318 1.6 8.0 0.00 0.00 0.00 43 1016.3
20190420234507 12 334 1.6 8.0 0.00 0.00 0.00 42 1016.3
20190420234006 12 355 3.2 9.7 0.00 0.00 0.00 42 1016.2
20190420233506 12 2 3.2 9.7 0.00 0.00 0.00 42 1016.3
20190420233116 12 348 1.6 9.7 0.00 0.00 0.00 42 1016.3
20190420233006 12 341 3.2 8.0 0.00 0.00 0.00 42 1016.3
20190420232507 12 334 3.2 9.7 0.00 0.00 0.00 41 1016.4
20190420232007 12 359 3.2 9.7 0.00 0.00 0.00 40 1016.4
20190420231506 12 3 4.8 12.9 0.00 0.00 0.00 40 1016.4
20190420231124 12 358 3.2 11.3 0.00 0.00 0.00 39 1016.6
20190420231008 12 18 4.8 12.9 0.00 0.00 0.00 39 1016.3
20190420230507 12 14 4.8 11.3 0.00 0.00 0.00 37 1016.3
20190420230007 12 346 3.2 11.3 0.00 0.00 0.00 36 1016.3
20190420225507 12 336 1.6 8.0 0.00 0.00 0.00 35 1016.3
20190420225006 13 353 1.6 9.7 0.00 0.00 0.00 33 1016.3
20190420224506 13 11 3.2 9.7 0.00 0.00 0.00 31 1016.2
20190420224006 13 3 3.2 8.0 0.00 0.00 0.00 29 1016.2
20190420223507 13 338 3.2 11.3 0.00 0.00 0.00 28 1016.3
20190420223122 13 345 3.2 9.7 0.00 0.00 0.00 27 1016.3
20190420223007 13 345 3.2 12.9 0.00 0.00 0.00 27 1016.3
20190420222507 14 338 4.8 12.9 0.00 0.00 0.00 27 1016.3
20190420222006 13 320 3.2 12.9 0.00 0.00 0.00 28 1016.4
20190420221506 13 303 1.6 11.3 0.00 0.00 0.00 29 1016.3
20190420221007 13 310 1.6 9.7 0.00 0.00 0.00 31 1016.4
20190420220506 12 302 0.0 3.2 0.00 0.00 0.00 31 1016.4
20190420220006 12 297 0.0 3.2 0.00 0.00 0.00 31 1016.3
20190420215507 13 314 0.0 3.2 0.00 0.00 0.00 31 1016.3
20190420215125 13 335 0.0 3.2 0.00 0.00 0.00 30 1016.4
20190420215007 13 328 0.0 3.2 0.00 0.00 0.00 30 1016.4
20190420214505 13 316 0.0 3.2 0.00 0.00 0.00 29 1016.3
20190420214006 13 311 0.0 4.8 0.00 0.00 0.00 28 1016.5
20190420213506 13 354 1.6 4.8 0.00 0.00 0.00 27 1016.4
20190420213006 13 349 0.0 4.8 0.00 0.00 0.00 26 1016.4
20190420212506 13 342 0.0 4.8 0.00 0.00 0.00 25 1016.3
20190420212006 14 345 1.6 4.8 0.00 0.00 0.00 25 1016.3
20190420211506 14 345 1.6 4.8 0.00 0.00 0.00 25 1016.4
20190420211125 14 341 0.0 4.8 0.00 0.00 0.00 25 1016.4
20190420211006 14 338 1.6 4.8 0.00 0.00 0.00 25 1016.2
20190420210506 14 329 1.6 4.8 0.00 0.00 0.00 25 1016.4
20190420210007 14 332 1.6 4.8 0.00 0.00 0.00 24 1016.1
20190420205506 15 331 1.6 6.4 0.00 0.00 0.00 23 1016.2
20190420205123 15 328 0.0 4.8 0.00 0.00 0.00 22 1016.2
20190420205007 15 339 1.6 6.4 0.00 0.00 0.00 22 1016.2
20190420204509 15 354 1.6 6.4 0.00 0.00 0.00 21 1016.2
20190420204007 15 2 1.6 6.4 0.00 0.00 0.00 20 1016.1
20190420203506 15 333 1.6 6.4 0.00 0.00 0.00 19 1016.1
20190420203126 16 319 0.0 4.8 0.00 0.00 0.00 19 1015.9
20190420203006 16 310 1.6 6.4 0.00 0.00 0.00 20 1015.9
20190420202507 16 325 1.6 6.4 0.00 0.00 0.00 19 1015.9
20190420202006 16 299 0.0 4.8 0.00 0.00 0.00 19 1015.8
20190420201506 16 297 0.0 3.2 0.00 0.00 0.00 18 1015.8
20190420201118 16 317 0.0 1.6 0.00 0.00 0.00 16 1015.7
20190420201006 16 323 1.6 3.2 0.00 0.00 0.00 16 1015.7
20190420200508 17 314 1.6 4.8 0.00 0.00 0.00 13 1015.5
20190420200006 17 321 1.6 6.4 0.00 0.00 0.00 13 1015.6
20190420195506 17 314 1.6 6.4 0.00 0.00 0.00 11 1015.6
20190420195124 17 328 0.0 4.8 0.00 0.00 0.00 11 1015.6
20190420195007 17 327 0.0 4.8 0.00 0.00 0.00 11 1015.5
20190420194506 18 349 0.0 3.2 0.00 0.00 0.00 11 1015.4
20190420194006 18 309 0.0 4.8 0.00 0.00 0.00 11 1015.4
20190420193506 18 344 3.2 12.9 0.00 0.00 0.00 10 1015.2
20190420193006 18 342 4.8 14.5 0.00 0.00 0.00 10 1015.4
20190420192506 18 339 4.8 17.7 0.00 0.00 0.00 10 1015.2
20190420192006 19 324 4.8 17.7 0.00 0.00 0.00 10 1015.1
20190420191506 19 334 4.8 17.7 0.00 0.00 0.00 10 1015.1
20190420191006 19 357 6.4 17.7 0.00 0.00 0.00 10 1015.1
20190420190506 20 329 4.8 14.5 0.00 0.00 0.00 10 1014.9
20190420190006 20 327 3.2 12.9 0.00 0.00 0.00 10 1014.8
20190420185506 21 349 3.2 8.0 0.00 0.00 0.00 10 1014.7
20190420185007 21 14 3.2 8.0 0.00 0.00 0.00 10 1014.8
20190420184506 21 29 3.2 12.9 0.00 0.00 0.00 10 1014.8
20190420184006 21 6 3.2 12.9 0.00 0.00 0.00 10 1014.6
20190420183506 21 355 3.2 17.7 0.00 0.00 0.00 10 1014.7
20190420183007 22 3 4.8 22.5 0.00 0.00 0.00 10 1014.6
20190420182506 22 4 6.4 22.5 0.00 0.00 0.00 10 1014.5
20190420182006 23 17 4.8 12.9 0.00 0.00 0.00 10 1014.5
20190420181506 23 359 6.4 17.7 0.00 0.00 0.00 10 1014.5
20190420181007 23 327 6.4 17.7 0.00 0.00 0.00 10 1014.5
20190420180506 23 323 6.4 17.7 0.00 0.00 0.00 10 1014.6
20190420180006 23 2 6.4 16.1 0.00 0.00 0.00 10 1014.6
20190420175507 23 353 6.4 14.5 0.00 0.00 0.00 10 1014.6
20190420175007 23 337 6.4 17.7 0.00 0.00 0.00 10 1014.5
20190420174505 23 338 6.4 17.7 0.00 0.00 0.00 10 1014.3
20190420174006 23 329 8.0 17.7 0.00 0.00 0.00 10 1014.5
20190420173506 23 335 8.0 20.9 0.00 0.00 0.00 10 1014.5
20190420173008 23 325 9.7 20.9 0.00 0.00 0.00 10 1014.7
20190420172506 23 331 11.3 25.7 0.00 0.00 0.00 10 1014.5
20190420172006 23 351 11.3 25.7 0.00 0.00 0.00 10 1014.5
20190420171506 24 342 11.3 20.9 0.00 0.00 0.00 10 1014.5
20190420171006 24 323 11.3 24.1 0.00 0.00 0.00 10 1014.5
20190420170506 24 327 11.3 24.1 0.00 0.00 0.00 10 1014.5
20190420170010 25 340 9.7 24.1 0.00 0.00 0.00 10 1014.5
20190420165506 25 335 11.3 24.1 0.00 0.00 0.00 10 1014.6
20190420165007 25 341 11.3 24.1 0.00 0.00 0.00 10 1014.6
20190420164507 25 337 12.9 24.1 0.00 0.00 0.00 10 1014.6
20190420164006 25 323 12.9 24.1 0.00 0.00 0.00 10 1014.6
20190420163506 25 324 11.3 22.5 0.00 0.00 0.00 10 1014.6
20190420163006 25 329 8.0 22.5 0.00 0.00 0.00 10 1014.7
20190420162506 26 318 6.4 17.7 0.00 0.00 0.00 10 1014.7
20190420162006 26 312 6.4 17.7 0.00 0.00 0.00 10 1014.9
20190420161509 26 313 3.2 17.7 0.00 0.00 0.00 10 1014.9
20190420161006 26 314 1.6 9.7 0.00 0.00 0.00 10 1014.9
20190420160506 25 302 1.6 6.4 0.00 0.00 0.00 10 1015.2
20190420160007 25 333 1.6 12.9 0.00 0.00 0.00 10 1015.4
20190420155506 25 342 1.6 12.9 0.00 0.00 0.00 10 1015.4
20190420155006 25 310 4.8 12.9 0.00 0.00 0.00 10 1015.5
20190420154506 25 332 6.4 12.9 0.00 0.00 0.00 10 1015.5
20190420154006 25 351 4.8 12.9 0.00 0.00 0.00 10 1015.6
20190420153508 24 5 4.8 17.7 0.00 0.00 0.00 10 1015.7
20190420153006 24 4 4.8 17.7 0.00 0.00 0.00 10 1015.8
20190420152506 24 334 4.8 12.9 0.00 0.00 0.00 10 1015.8
20190420152006 24 326 4.8 12.9 0.00 0.00 0.00 10 1015.8
20190420151506 25 333 4.8 12.9 0.00 0.00 0.00 10 1016.0
20190420151006 25 306 3.2 12.9 0.00 0.00 0.00 10 1016.1
20190420150506 26 292 3.2 12.9 0.00 0.00 0.00 10 1016.1
20190420150006 25 307 4.8 14.5 0.00 0.00 0.00 10 1016.0
20190420145506 25 314 4.8 14.5 0.00 0.00 0.00 10 1016.1
20190420145119 26 326 3.2 14.5 0.00 0.00 0.00 10 1016.3
20190420145007 26 345 3.2 14.5 0.00 0.00 0.00 10 1016.3
20190420144507 26 11 3.2 14.5 0.00 0.00 0.00 10 1016.3
20190420144006 26 22 3.2 14.5 0.00 0.00 0.00 10 1016.4
20190420143506 27 120 0.0 6.4 0.00 0.00 0.00 10 1016.6
20190420143006 27 146 1.6 6.4 0.00 0.00 0.00 10 1016.5
20190420142506 27 249 1.6 6.4 0.00 0.00 0.00 10 1016.6
20190420142009 27 276 1.6 8.0 0.00 0.00 0.00 10 1016.7
20190420141506 27 217 0.0 8.0 0.00 0.00 0.00 10 1016.9
20190420141118 28 232 0.0 4.8 0.00 0.00 0.00 10 1016.7
20190420141006 28 56 0.0 3.2 0.00 0.00 0.00 10 1016.8
20190420140506 28 28 0.0 3.2 0.00 0.00 0.00 10 1016.8
20190420140006 28 110 0.0 3.2 0.00 0.00 0.00 10 1016.9
20190420135507 28 121 0.0 4.8 0.00 0.00 0.00 10 1017.2
20190420135007 28 156 0.0 4.8 0.00 0.00 0.00 10 1017.1
20190420134506 27 163 0.0 4.8 0.00 0.00 0.00 10 1017.3
20190420134006 27 167 0.0 4.8 0.00 0.00 0.00 10 1017.3
20190420133506 27 44 0.0 4.8 0.00 0.00 0.00 10 1017.3
20190420133117 27 109 0.0 4.8 0.00 0.00 0.00 10 1017.3
20190420133007 27 120 0.0 4.8 0.00 0.00 0.00 10 1017.4
20190420132507 27 70 1.6 6.4 0.00 0.00 0.00 10 1017.6
20190420132006 26 58 1.6 6.4 0.00 0.00 0.00 10 1017.4
20190420131506 27 158 1.6 6.4 0.00 0.00 0.00 10 1017.6
20190420131122 27 181 0.0 4.8 0.00 0.00 0.00 10 1017.6
20190420131006 27 181 1.6 4.8 0.00 0.00 0.00 10 1017.6
20190420130505 27 163 1.6 6.4 0.00 0.00 0.00 10 1017.7
20190420130006 27 139 0.0 6.4 0.00 0.00 0.00 10 1017.6
20190420125506 27 133 0.0 4.8 0.00 0.00 0.00 10 1017.7
20190420125007 27 114 0.0 4.8 0.00 0.00 0.00 10 1017.8
20190420124506 27 98 0.0 4.8 0.00 0.00 0.00 10 1017.7
20190420124006 26 111 1.6 6.4 0.00 0.00 0.00 10 1017.7
20190420123506 26 140 1.6 6.4 0.00 0.00 0.00 10 1017.9
20190420123007 26 171 1.6 8.0 0.00 0.00 0.00 10 1017.9
20190420122507 26 119 0.0 8.0 0.00 0.00 0.00 10 1017.9
20190420122006 26 105 0.0 8.0 0.00 0.00 0.00 10 1018.0
20190420121506 26 108 0.0 6.4 0.00 0.00 0.00 10 1018.0
20190420121007 25 123 1.6 6.4 0.00 0.00 0.00 10 1018.2
20190420120506 25 133 1.6 6.4 0.00 0.00 0.00 10 1018.3
20190420120006 25 139 0.0 6.4 0.00 0.00 0.00 10 1018.2
20190420115507 25 148 1.6 6.4 0.00 0.00 0.00 10 1018.3
20190420115006 25 159 1.6 6.4 0.00 0.00 0.00 10 1018.4
20190420114506 25 158 1.6 6.4 0.00 0.00 0.00 10 1018.4
20190420114006 24 153 1.6 6.4 0.00 0.00 0.00 10 1018.5
20190420113507 25 169 1.6 8.0 0.00 0.00 0.00 10 1018.6
20190420113123 24 184 1.6 8.0 0.00 0.00 0.00 10 1018.5
20190420113006 23 184 1.6 8.0 0.00 0.00 0.00 10 1018.7
20190420112507 24 175 1.6 8.0 0.00 0.00 0.00 10 1018.8
20190420112006 24 162 1.6 6.4 0.00 0.00 0.00 10 1018.8
20190420111507 24 123 0.0 6.4 0.00 0.00 0.00 10 1018.7
20190420111007 24 51 0.0 4.8 0.00 0.00 0.00 10 1018.9
20190420110506 23 77 0.0 6.4 0.00 0.00 0.00 10 1018.9
20190420110006 23 153 1.6 6.4 0.00 0.00 0.00 10 1018.9
20190420105507 23 150 1.6 6.4 0.00 0.00 0.00 10 1018.9
20190420105006 23 151 1.6 6.4 0.00 0.00 0.00 10 1018.8
20190420104506 23 163 1.6 6.4 0.00 0.00 0.00 10 1019.0
20190420104007 23 182 1.6 4.8 0.00 0.00 0.00 10 1019.0
20190420103506 23 133 1.6 6.4 0.00 0.00 0.00 10 1019.0
20190420103125 23 97 0.0 4.8 0.00 0.00 0.00 10 1019.0
20190420103006 24 90 1.6 6.4 0.00 0.00 0.00 10 1019.0
20190420102507 24 125 0.0 4.8 0.00 0.00 0.00 10 1019.0
20190420102006 24 122 1.6 4.8 0.00 0.00 0.00 10 1019.2
20190420101506 25 99 0.0 4.8 0.00 0.00 0.00 10 1019.1
20190420101118 25 230 0.0 3.2 0.00 0.00 0.00 10 1019.1
20190420101007 25 206 0.0 3.2 0.00 0.00 0.00 10 1019.1
20190420100506 24 152 0.0 4.8 0.00 0.00 0.00 10 1019.1
20190420100006 23 148 0.0 4.8 0.00 0.00 0.00 10 1019.1
20190420095507 23 126 0.0 3.2 0.00 0.00 0.00 10 1019.1
20190420095006 23 97 0.0 4.8 0.00 0.00 0.00 10 1019.1
20190420094506 23 99 0.0 6.4 0.00 0.00 0.00 10 1019.0
20190420094007 23 83 0.0 6.4 0.00 0.00 0.00 10 1019.0
20190420093506 23 94 0.0 3.2 0.00 0.00 0.00 10 1019.0
20190420093006 23 112 0.0 3.2 0.00 0.00 0.00 10 1019.1
20190420092507 22 71 0.0 4.8 0.00 0.00 0.00 10 1019.0
20190420091006 20 301 1.6 6.4 0.00 0.00 0.00 10 1019.1
20190420090506 19 303 1.6 6.4 0.00 0.00 0.00 10 1019.0
20190420090006 18 319 3.2 6.4 0.00 0.00 0.00 10 1018.9
20190420085508 18 331 3.2 8.0 0.00 0.00 0.00 10 1018.9